AirNav   Air Wisconsin Up To $57,000 Bonus
 
 1000 users online  

6A7 Brocker Lake Seaplane Base
Big Lake, Alaska, USA

GOING TO BIG LAKE?


FAA INFORMATION EFFECTIVE 25 FEBRUARY 2021

Location

FAA Identifier: 6A7
Lat/Long: 61-28-54.6200N 149-46-23.6800W
61-28.910333N 149-46.394667W
61.4818389,-149.7732444
(estimated)
Elevation: 100 ft. / 30 m (estimated)
From city: 3 miles SE of BIG LAKE, AK
Time zone: UTC -9 (UTC -8 during Daylight Saving Time)
Zip code: 99567

Seaplane Base Operations

Seaplane Base use: Open to the public
Activation date: 05/2006
Control tower: no
ARTCC: ANCHORAGE CENTER
FSS: KENAI FLIGHT SERVICE STATION [907-283-7211]
NOTAMs facility: ENA (NOTAM-D service not available)
Attendance: UNATNDD
Wind indicator: yes, WIND INDICATOR LOCATED ON EAST SIDE OF THE LAKE.
Segmented circle: no

Seaplane Base Communications

CTAF: 122.8
WX AWOS-3P at BCV (9 nm SE): 135.55 (907-688-0826)
WX AWOS-3P at IYS (9 nm NE): 135.25 (907-373-3801)
WX ASOS at FRN (13 nm S): 134.25
WX ASOS at MRI (16 nm S): 124.25 (907-271-5277)
WX ASOS at LHD (19 nm S): PHONE 907-245-5432
WX ASOS at ANC (20 nm S): PHONE 907-271-5278

Nearby radio navigation aids

VOR radial/distance  VOR name  Freq  Var
BGQr114/7.6BIG LAKE VORTAC112.5019E
TEDr358/19.6ANCHORAGE VOR/DME113.1518E

Seaplane Base Services

Runway Information

Runway ALL/WAY

Dimensions: 1200 x 100 ft. / 366 x 30 m
Surface: water, in excellent condition
RUNWAY ALL  RUNWAY WAY
Traffic pattern: leftleft

Seaplane Base Ownership and Management from official FAA records

Ownership: Publicly-owned
Owner: STATE OF AK DNR
DEPT OF NATURAL RESOURCES, 550 W 7TH AVE STE 900
ANCHORAGE, AK 99501
Phone 907-269-8400

Seaplane Base Operational Statistics

Aircraft based on the field: 1
Single engine airplanes: 1
    
Aircraft operations: 50/year *
80% local general aviation
20% transient general aviation
* for 12-month period ending 31 December 2018

Additional Remarks

PUBLIC ACCESS AT NORTH END OF LAKE. NO DESIGNATED TRANSIENT AREAS.
WX CAMERA AVBL ON INTERNET AT HTTP://AVCAMS.FAA.GOV

Instrument Procedures

There are no published instrument procedures at 6A7.

Some nearby airports with instrument procedures:

PAGQ - Big Lake Airport (3 nm N)
PAWS - Wasilla Airport (9 nm NE)
PAFR - Bryant Army Airfield Heliport (13 nm S)
PAED - Elmendorf Air Force Base (14 nm S)
PAMR - Merrill Field Airport (16 nm S)
PAUO - Willow Airport (18 nm NW)
PANC - Ted Stevens Anchorage International Airport (20 nm S)
 
Loc | Ops | Rwys | IFR | FBO | Links
Com | Nav | Svcs | Stats | Notes

Crowley
 
Area around 6A7 (Brocker Lake Seaplane Base)
 
Road maps at: MapQuest Bing Google
 
Aerial photo
No photo
 
Sectional chart

 
Airport distance calculator
Flying to Brocker Lake Seaplane Base? Find the distance to fly.

From to 6A7

Sunrise and sunset
Times for 07-Mar-2021
 Local
(UTC-9)
 Zulu
(UTC)
Morning civil twilight06:5915:59
Sunrise07:4216:42
Sunset18:3803:38
Evening civil twilight19:2204:22

Current date and time
Zulu (UTC)  07-Mar-2021 15:14:43
Local (UTC-9)  07-Mar-2021 06:14:43
 
METAR
PABV 
8nm SE 
071456Z AUTO 00000KT 10SM CLR M16/M18 A3015 RMK AO2 SLP219 T11611183 51020 FZRANO
PAFR 
13nm S 
071358Z AUTO 00000KT 10SM CLR M20/M22 A3007 RMK AO2 SLP196 T11981218 FZRANO $
PAED 
14nm S 
071356Z 00000KT 10SM CLR M17/M20 A3011 RMK AO2A SLP195 T11751197 $
PAMR 
16nm S 
071453Z 08004KT 10SM FEW001 M17/M19 A3013 RMK AO2 SLP207 I3000 T11671194 51020 $
PALH 
19nm S 
071453Z AUTO 00000KT 10SM CLR M15/M16 A3015 RMK AO2 SLP209 I1000 I3/// T11501161 TSNO $
TAF
PAED 
14nm S 
061900Z 0619/0801 35009KT 9999 VCSH FEW010 BKN035 QNH2964INS TEMPO 0619/0621 9000 -SHSN BECMG 0620/0621 36006KT 9999 NSW SCT035 BKN060 QNH2973INS BECMG 0702/0703 09006KT 9999 FEW030 QNH2987INS BECMG 0712/0713 VRB06KT 9999 VCFG FEW002 QNH3008INS BECMG 0721/0722 VRB06KT 9999 NSW FEW010 QNH3024INS TXM02/0701Z TNM18/0716Z
NOTAMs
Click for the latest NOTAMs
NOTAMs are issued by the DoD/FAA and will open in a separate window not controlled by AirNav.

 

 
 

Would you like to see your business listed on this page?

 If your business provides an interesting product or service to pilots, flight crews, aircraft, or users of the Brocker Lake Seaplane Base, you should consider listing it here.  To start the listing process, click on the button below
 
Add a business
 

Other Pages about Brocker Lake Seaplane Base

Update a link
 
Copyright © AirNav, LLC. All rights reserved. Privacy Policy  Contact